Millville, NJ

1:14 AM EDT on August 23, 2017 (GMT -0400)
Millville Municipal

Weather History for KMIV - May, 2014

Change the Weather History Date:

Monday, May 19, 2014

  Actual Average Record
Temperature  
Mean Temperature 54 °F -  
Max Temperature 73 °F 73 °F 95 °F (1962)
Min Temperature 37 °F 52 °F 35 °F (2002)
Degree Days  
Heating Degree Days 10    
Growing Degree Days 4 (Base 50)    
Moisture  
Dew Point 40 °F    
Average Humidity 62    
Maximum Humidity 97    
Minimum Humidity 28    
Precipitation  
Precipitation 0.00 in - - ()
Sea Level Pressure  
Sea Level Pressure 30.19 in    
Wind  
Wind Speed 3 mph (WNW)    
Max Wind Speed 15 mph    
Max Gust Speed 23 mph    
Visibility 10 miles    
Events      
Averages and records for this station are not official NWS values.
T = Trace of Precipitation, MM = Missing Value Source: NWS Daily Summary

Daily Weather History Graph

Daily Weather History Graph

Search for Another Location

Airport or City:

Trip Planner

Search our weather history database for the weather conditions in past years. The results will help you decide how hot, cold, wet, or windy it might be!

Date:

Astronomy

May. 19, 2014 Rise Set
Actual Time 5:43 AM EDT 8:10 PM EDT
Civil Twilight 5:12 AM EDT 8:41 PM EDT
Nautical Twilight 4:34 AM EDT 9:19 PM EDT
Astronomical Twilight 3:52 AM EDT 10:01 PM EDT
Moon No Moon Rise 10:37 AM EDT (5/19)
Length of Visible Light 15h 28m
Length of Day
14h 27m
Waning Gibbous, 71% of the Moon is Illuminated
May 19
Waning Gibbous
May 21
Last Quarter
May 28
New
Jun 5
First Quarter
Jun 13
Full

Hourly Weather History & Observations

Time (EDT) Temp. Dew Point Humidity Pressure Visibility Wind Dir Wind Speed Gust Speed Precip Events Conditions
12:54 AM 41.0 °F 39.0 °F 93% 30.20 in 10.0 mi Calm Calm - N/A   Clear
1:54 AM 41.0 °F 37.9 °F 89% 30.19 in 10.0 mi Calm Calm - N/A   Clear
2:54 AM 39.9 °F 37.9 °F 93% 30.20 in 10.0 mi Calm Calm - N/A   Clear
3:54 AM 39.0 °F 37.9 °F 96% 30.21 in 10.0 mi Calm Calm - N/A   Clear
4:54 AM 39.0 °F 37.0 °F 93% 30.22 in 10.0 mi Calm Calm - N/A   Clear
5:54 AM 37.9 °F 37.0 °F 97% 30.24 in 10.0 mi Calm Calm - N/A   Clear
6:54 AM 44.1 °F 42.1 °F 93% 30.25 in 10.0 mi Calm Calm - N/A   Clear
7:54 AM 55.9 °F 43.0 °F 62% 30.26 in 10.0 mi North 3.5 mph - N/A   Clear
9:54 AM 64.9 °F 37.0 °F 36% 30.25 in 10.0 mi NW 8.1 mph - N/A   Clear
10:54 AM 66.0 °F 39.0 °F 37% 30.25 in 10.0 mi NNW 13.8 mph 19.6 mph 0.00 in   Clear
11:54 AM 68.0 °F 37.0 °F 32% 30.23 in 10.0 mi NW 10.4 mph - N/A   Clear
12:54 PM 69.1 °F 37.0 °F 31% 30.21 in 10.0 mi West 13.8 mph 17.3 mph 0.00 in   Partly Cloudy
2:54 PM 71.1 °F 37.9 °F 30% 30.17 in 10.0 mi NW 8.1 mph 19.6 mph N/A   Mostly Cloudy
3:54 PM 72.0 °F 39.0 °F 30% 30.15 in 10.0 mi WNW 10.4 mph 20.7 mph 0.00 in   Clear
4:54 PM 72.0 °F 37.0 °F 28% 30.14 in 10.0 mi WNW 15.0 mph 20.7 mph N/A   Scattered Clouds
5:54 PM 71.1 °F 37.0 °F 29% 30.14 in 10.0 mi West 11.5 mph 23.0 mph N/A   Scattered Clouds
6:54 PM 69.1 °F 39.0 °F 33% 30.13 in 10.0 mi WNW 8.1 mph - N/A   Mostly Cloudy
7:54 PM 64.0 °F 41.0 °F 43% 30.13 in 10.0 mi West 3.5 mph - N/A   Clear
8:54 PM 53.1 °F 46.0 °F 77% 30.14 in 10.0 mi WSW 3.5 mph - N/A   Partly Cloudy
9:54 PM 53.1 °F 45.0 °F 74% 30.15 in 10.0 mi Calm Calm - N/A   Scattered Clouds
10:54 PM 51.1 °F 45.0 °F 80% 30.16 in 10.0 mi Calm Calm - N/A   Mostly Cloudy
11:54 PM 48.0 °F 44.1 °F 86% 30.16 in 10.0 mi Calm Calm - N/A   Clear